Location: Newark
(49.8969°N, 3.3422°E)
Time: 06:18:58
(UTC+00:00)

Tiros 1 - Pass Details

Date: 20 January 2021
Orbit: 630 x 664 km, 48.4° (Epoch: 06 March)

Event Time Altitude Azimuth Distance (km) Brightness Sun altitude
Rises 17:53:43 0° 189° (S) 2,915 10.8 -14.5°
Reaches altitude 10° 17:57:30 10° 158° (SSE) 2,006 9.6 -15.1°
Maximum altitude 17:59:10 12° 136° (SE) 1,885 9.2 -15.3°
Enters shadow 17:59:41 12° 129° (SE) 1,897 9.2 -15.4°
